Temperature
27 28 29 28 27 27 25 24 23 23 22 21 20 20 19 19 18 18 17 17 16 15 15 14 14 13 13 12 12 12 11 11 11 11 10 10 10 10 10 10 10 10 10 10
26 28 28 27 26 25 24 24 23 23 22 22 20 20 19 18 17 17 17 16 15 15 14 14 13 13 13 12 12 12 11 11 11 11 10 10 10 10 10 10 10 10 10 10
25 27 27 24 23 23 23 23 22 21 21 21 20 19 18 17 17 17 16 15 15 14 14 13 13 12 12 12 12 11 11 11 11 11 10 10 10 10 10 10 9 9 9 9
25 26 23 21 23 22 22 22 22 21 20 19 19 18 17 17 17 15 15 14 14 13 13 13 12 12 12 11 11 11 11 11 10 10 10 10 10 10 9 9 9 9 9 9
25 24 23 22 22 21 20 20 20 19 19 18 17 17 17 17 15 14 14 14 13 13 12 12 12 12 11 11 11 10 10 10 10 10 10 9 9 9 9 9 9 9 9 9
24 23 22 21 22 21 21 20 19 18 17 17 16 16 16 15 14 14 13 13 13 12 12 12 12 11 11 10 10 10 10 9 9 9 9 9 9 9 9 8 8 8 8 9
23 23 23 21 21 21 19 18 17 17 16 16 15 15 14 14 14 13 13 13 12 12 12 11 11 11 10 10 9 9 9 8 8 8 8 8 8 8 8 8 8 8 8 8
22 22 21 21 20 19 18 17 17 16 15 15 15 14 14 14 13 13 13 12 12 12 11 11 11 10 9 9 8 8 7 7 7 7 7 7 8 8 8 8 8 8 8 8
22 21 21 20 19 18 17 17 16 15 15 14 14 14 14 13 13 13 12 12 12 11 11 10 9 8 8 7 7 6 6 6 6 6 6 7 7 7 7 7 7 8 8 8
21 22 21 20 19 17 16 16 15 15 14 14 14 14 13 13 13 12 12 11 11 10 9 8 7 6 6 5 5 5 5 5 5 5 6 6 6 7 7 7 7 8 8 8
21 21 19 19 17 16 16 15 15 14 14 14 14 13 13 13 12 12 11 10 9 8 7 6 5 5 5 4 4 4 4 5 5 5 6 6 6 6 7 7 7 8 8 8
19 19 18 17 16 16 15 15 14 14 14 14 13 13 13 12 11 10 9 8 7 6 5 4 4 4 4 4 4 4 4 4 5 5 5 6 6 6 7 7 7 7 7 8
18 17 17 16 16 15 15 14 14 14 14 13 13 12 12 11 10 9 8 6 5 5 4 4 4 4 4 4 4 5 5 5 5 5 5 6 6 6 6 7 7 7 7 7
17 16 16 16 15 15 14 14 14 13 13 13 12 11 11 10 8 7 6 5 5 4 4 4 4 4 5 5 5 5 5 5 5 5 6 6 6 6 6 7 7 7 7 7
17 16 15 15 15 14 14 13 13 13 12 12 11 10 9 8 7 6 5 5 4 4 4 4 5 5 5 5 5 5 6 6 6 6 6 6 6 6 6 7 7 7 7 7
16 16 15 15 14 14 13 13 13 12 12 11 10 9 8 7 6 5 5 5 4 4 5 5 5 5 5 6 6 6 6 6 6 6 6 6 6 6 7 7 7 7 7 7
16 15 15 14 14 13 13 12 12 11 11 10 9 8 7 6 6 5 5 4 4 5 5 5 5 5 6 6 6 6 6 6 6 6 6 7 7 7 7 7 7 7 7 7
15 15 14 14 13 13 12 12 11 11 10 9 8 7 7 6 5 5 5 4 5 5 5 5 6 6 6 6 6 6 7 7 7 7 7 7 7 7 7 7 7 7 7 7
15 14 14 13 12 12 11 11 10 10 9 9 8 7 6 6 5 5 5 5 5 5 5 6 6 6 6 6 7 7 7 7 7 7 7 7 7 7 7 7 7 7 7 7
14 14 13 12 12 11 11 10 10 10 9 8 7 6 6 5 5 5 5 5 5 5 5 6 6 6 7 7 7 7 7 7 7 7 7 7 7 7 7 7 7 7 7 7
14 13 12 12 11 11 10 10 10 9 8 7 7 6 6 5 5 5 5 5 5 5 6 6 6 6 7 7 7 7 7 7 7 7 7 7 7 7 7 7 7 7 7 8
13 12 12 11 11 10 10 10 10 9 8 7 7 6 6 5 5 5 5 5 5 6 6 6 6 7 7 7 7 7 7 7 7 7 7 7 8 8 8 8 8 8 8 8
12 11 11 10 10 10 10 10 9 9 8 7 7 6 6 5 5 5 5 5 5 6 7 7 7 7 8 8 8 8 8 8 8 8 8 8 8 8 8 8 9 9 9 9
12 11 11 10 10 10 10 10 9 8 8 7 7 6 6 5 5 5 5 5 6 7 7 7 8 8 8 8 8 8 8 8 8 8 8 8 8 9 9 9 9 10 10 10
12 11 11 10 11 11 10 10 9 8 8 7 7 6 5 5 5 5 5 6 6 7 7 8 8 8 9 9 9 9 9 9 9 9 9 9 9 9 10 10 10 10 11 11
12 11 11 11 11 10 10 9 9 8 7 7 6 6 5 5 6 6 6 6 7 7 7 8 8 9 9 9 9 10 10 10 10 10 10 10 10 10 11 11 11 11 11 12
12 13 12 12 11 10 9 9 8 8 7 6 6 6 5 5 5 6 6 6 7 7 8 8 8 9 9 9 10 10 10 11 11 11 11 11 11 11 11 11 11 12 12 12
Wind_Speed
17 18 16 13 10 9 10 10 11 14 14 7 4 8 11 13 15 17 19 19 14 11 10 9 9 8 9 10 9 9 9 10 10 10 10 11 11 11 12 12 13 11 10 9
17 16 13 8 9 9 9 11 13 15 14 7 7 10 13 16 20 23 21 17 15 14 13 12 11 11 11 10 10 9 10 10 10 10 10 10 10 11 12 11 11 10 10 9
14 15 12 5 10 10 11 12 14 17 16 13 13 16 18 19 23 21 17 18 19 18 14 11 12 10 10 10 9 9 10 10 10 10 10 10 12 11 10 9 9 9 8 9
12 13 7 6 7 9 11 13 17 15 13 15 18 20 19 19 17 18 22 22 19 18 17 16 14 13 11 13 12 11 11 11 10 10 11 10 10 10 9 8 9 9 9 9
8 12 5 5 7 10 13 17 12 14 17 21 23 24 21 18 21 22 21 18 17 19 21 17 16 15 13 13 13 13 13 11 11 11 11 11 11 10 9 8 8 9 10 10
9 12 11 5 9 13 15 11 13 19 22 23 24 22 20 22 24 22 20 18 17 20 19 16 14 13 13 15 14 14 14 13 12 11 12 13 12 11 10 9 9 10 11 9
10 12 4 7 14 17 13 13 20 21 22 23 22 21 22 25 23 21 19 20 18 17 15 13 12 11 13 15 15 14 14 13 13 12 12 13 12 11 11 10 10 10 10 9
9 10 5 11 13 12 13 16 19 21 22 23 23 24 25 24 22 21 21 22 21 15 14 12 12 12 14 14 14 14 14 16 15 13 15 15 11 10 10 9 10 10 10 10
6 8 9 9 11 13 15 18 19 21 23 24 25 26 26 24 21 21 21 19 18 17 15 13 12 12 15 15 14 16 17 17 16 16 14 14 13 12 10 9 9 9 9 8
7 9 12 13 15 16 18 19 20 22 23 24 25 26 26 24 21 20 20 19 17 18 18 18 16 16 16 17 16 16 17 16 15 15 14 13 11 10 10 10 9 8 8 6
10 12 14 14 17 18 19 20 22 22 23 24 26 26 25 21 20 20 19 17 17 18 19 21 20 19 19 17 17 17 17 16 15 14 13 12 11 10 11 9 8 7 6 5
9 12 13 17 18 19 20 21 22 23 24 24 24 24 24 22 20 20 21 20 20 19 21 22 22 21 20 18 17 16 15 15 12 11 10 10 10 10 11 11 9 8 6 4
9 13 14 17 18 19 20 22 23 23 24 24 23 23 23 22 21 22 22 21 20 21 22 22 22 21 20 19 17 16 15 14 11 10 9 9 8 8 6 5 7 8 9 9
10 12 15 15 17 18 20 22 23 23 22 23 22 23 22 22 23 22 21 20 21 22 22 21 21 20 19 18 16 15 14 13 11 9 8 8 8 7 6 6 6 6 6 9
11 13 15 16 17 19 20 21 23 22 23 23 22 22 22 23 23 22 20 20 21 22 21 20 20 19 18 16 14 12 10 7 6 6 6 6 6 6 5 6 6 6 6 6
12 13 14 16 18 19 21 22 22 23 23 23 23 22 22 21 21 21 20 20 21 22 21 20 18 17 16 13 12 9 6 5 5 4 4 4 5 4 5 5 5 6 6 7
12 13 15 17 18 19 20 21 21 21 22 22 23 22 22 21 21 20 21 20 20 20 18 17 17 17 15 12 10 7 5 2 4 3 3 2 3 4 4 5 5 5 6 9
11 12 13 15 17 18 19 20 20 21 20 21 22 21 21 21 20 21 21 20 19 18 17 17 18 17 13 11 9 6 5 3 1 1 1 2 2 3 4 4 5 6 7 10
10 12 13 14 15 16 17 18 19 19 19 19 20 20 20 19 19 19 19 20 18 17 18 19 20 16 12 10 11 6 5 5 3 2 2 2 2 3 3 3 5 7 9 10
10 11 13 14 15 16 16 17 18 17 18 18 19 19 20 19 19 19 19 16 14 15 18 18 17 13 11 10 11 6 5 4 3 2 1 1 2 2 3 4 6 8 10 11
10 11 13 14 15 15 16 16 16 17 17 17 18 18 19 19 19 18 16 14 16 18 20 17 12 11 11 13 12 6 4 3 2 2 1 1 2 3 4 6 8 9 10 11
9 10 12 13 14 14 14 14 15 16 17 17 17 17 18 18 18 17 15 12 16 20 17 12 12 14 16 15 8 6 3 3 2 1 1 1 3 4 5 7 8 9 10 10
7 9 10 12 13 14 14 14 15 14 16 17 16 16 17 15 13 14 15 14 15 21 16 12 17 21 20 11 7 5 3 2 1 1 2 2 4 5 7 9 9 9 9 10
7 8 9 10 12 12 13 14 13 12 14 14 14 14 14 13 13 12 11 16 19 20 14 15 19 22 17 9 7 5 4 2 1 1 2 4 5 7 7 8 9 9 9 10
6 8 8 9 10 10 11 12 13 13 14 13 16 16 13 11 12 13 14 15 19 18 15 16 19 19 13 10 9 7 5 4 3 2 3 5 6 7 8 8 9 10 9 9
6 7 6 7 6 7 9 10 10 11 11 13 14 14 13 12 14 14 13 15 19 18 15 13 15 14 12 11 10 9 7 5 3 2 3 4 5 6 7 8 10 9 8 8
7 6 3 4 6 7 8 9 10 10 11 12 13 13 14 14 14 15 15 14 14 14 14 14 13 13 13 12 11 10 8 7 5 3 3 3 4 5 7 8 8 7 7 7
Wind_Direction
315 313 315 316 334 357 359 346 331 329 333 341 337 331 327 324 323 321 317 314 317 320 318 311 303 294 290 286 281 278 273 269 267 265 263 262 262 263 263 263 267 267 273 281
307 311 314 335 19 6 353 343 333 324 324 344 332 327 326 328 325 316 314 323 327 322 317 312 308 302 296 290 284 274 270 271 271 269 271 270 269 267 264 263 265 268 272 280
309 311 310 33 23 7 350 342 334 321 327 343 334 329 328 327 316 315 332 328 320 315 310 304 301 295 289 290 288 285 281 279 278 275 275 273 277 278 278 282 283 283 284 285
307 321 345 69 33 6 339 330 329 331 347 340 328 326 323 314 324 338 327 319 316 312 309 303 300 299 295 295 289 285 281 280 277 276 275 274 274 275 276 279 282 284 279 277
328 335 350 100 32 359 335 321 5 356 338 331 329 320 313 328 335 323 316 314 312 308 304 301 299 296 291 292 290 287 286 281 281 279 278 275 274 274 275 274 275 274 273 268
325 326 330 50 7 344 321 301 12 345 334 330 325 318 319 326 319 315 316 311 305 303 299 297 296 297 293 292 289 287 287 286 284 280 278 277 275 274 274 270 269 270 269 265
332 319 357 25 350 342 325 329 337 331 327 324 321 314 313 316 316 314 310 307 304 300 299 297 296 292 288 289 289 291 292 293 290 285 282 276 270 267 266 266 267 265 268 267
333 323 359 2 348 345 322 323 327 326 324 320 316 314 314 314 313 312 310 309 308 305 300 296 296 297 299 298 298 297 295 291 286 281 278 277 270 267 265 263 263 261 260 261
329 313 335 346 337 336 337 330 327 324 321 319 316 315 315 315 313 312 312 311 311 310 307 311 317 317 308 304 301 297 291 286 282 278 272 268 266 265 263 259 256 255 254 252
315 317 344 343 344 342 337 328 324 322 320 318 316 316 315 315 315 315 316 318 320 320 321 320 318 312 304 299 295 291 287 285 281 277 271 265 258 254 252 250 248 247 251 248
313 344 338 333 339 334 327 327 323 320 319 318 317 316 317 317 319 321 324 327 329 326 322 316 313 306 301 296 292 288 284 281 279 274 268 265 259 250 246 244 242 241 243 238
326 337 325 323 330 328 328 325 323 322 321 321 320 321 322 323 326 328 329 330 328 324 318 313 308 303 300 295 288 283 281 277 272 267 262 256 253 255 236 230 221 209 195 178
329 329 323 322 325 329 324 324 325 324 323 324 326 327 327 329 330 330 329 329 324 318 313 309 305 302 298 294 289 282 276 274 270 263 256 251 245 241 234 212 198 191 179 163
335 330 323 324 327 326 327 326 326 325 327 329 329 331 333 332 331 330 329 325 319 314 311 308 306 304 302 299 294 287 280 274 266 256 247 242 239 235 219 202 190 191 181 168
335 328 321 324 326 328 328 328 328 329 331 332 335 336 335 334 332 329 325 322 319 316 315 314 312 311 311 308 304 299 291 280 266 253 239 232 229 222 210 200 190 179 158 151
324 323 326 328 330 329 331 332 331 332 334 336 337 337 337 335 331 326 325 324 324 321 320 320 320 320 322 320 318 315 304 282 268 259 236 223 214 199 187 182 177 173 167 157
325 327 331 331 330 331 332 332 333 333 335 337 337 338 337 334 330 329 327 327 324 320 322 325 326 328 329 331 332 328 325 305 250 257 239 198 170 169 169 169 170 163 158 156
324 327 329 330 331 331 332 334 335 336 337 337 339 339 337 335 332 330 328 327 326 327 333 334 334 332 332 343 339 337 339 338 309 316 99 121 139 151 158 159 160 154 142 148
325 328 333 335 335 334 333 334 336 335 338 342 343 339 336 334 332 330 330 331 332 336 338 336 331 330 335 351 343 333 345 1 21 54 94 122 140 133 144 152 149 149 146 152
325 332 337 336 337 337 335 337 335 336 343 346 342 339 337 336 334 334 333 332 334 336 332 330 330 333 339 346 337 330 345 359 15 35 68 112 129 144 154 153 148 149 146 153
330 335 337 336 336 337 338 336 336 341 346 346 343 340 338 336 335 337 335 336 336 337 333 325 332 338 340 333 318 322 339 344 343 349 11 76 119 133 136 139 142 146 146 153
332 333 333 334 334 335 334 335 341 345 348 345 343 343 341 339 339 338 337 338 334 333 334 332 339 337 332 323 321 332 340 340 342 8 88 109 126 137 139 145 148 151 153 157
329 329 330 330 332 328 330 339 347 350 349 345 344 345 344 339 340 341 339 337 337 334 335 338 336 334 330 328 331 338 345 357 352 55 105 119 130 138 146 150 151 153 155 158
318 325 324 325 325 325 336 343 349 352 349 345 346 349 346 342 342 343 335 332 338 336 339 336 334 338 336 340 344 349 359 26 68 114 130 134 138 144 148 149 151 156 162 161
310 312 312 322 324 333 338 345 349 351 350 349 350 353 352 349 346 341 338 341 344 343 344 341 340 341 349 352 356 360 9 26 35 49 109 128 142 147 149 151 156 161 163 160
281 287 304 306 319 335 346 349 348 350 351 353 351 353 351 352 351 347 345 347 349 347 349 349 348 349 354 356 358 2 13 27 38 55 97 122 134 138 147 152 151 151 153 157
257 268 274 319 353 0 351 348 348 351 359 356 350 353 354 355 353 351 352 353 352 352 352 352 353 355 357 0 2 7 16 25 32 49 83 104 119 131 140 144 147 149 153 157
Height
1477 1468 1464 1465 1467 1470 1477 1483 1490 1489 1489 1489 1490 1492 1492 1491 1490 1488 1486 1483 1480 1478 1476 1474 1472 1469 1467 1464 1461 1459 1456 1454 1451 1449 1447 1444 1442 1440 1438 1436 1434 1432 1431 1429
1480 1469 1465 1468 1474 1477 1482 1485 1487 1488 1488 1487 1489 1490 1490 1489 1487 1485 1481 1478 1477 1475 1472 1470 1467 1464 1461 1458 1455 1452 1449 1447 1445 1443 1441 1438 1436 1434 1432 1430 1429 1427 1426 1424
1488 1471 1469 1486 1490 1489 1490 1489 1490 1492 1489 1487 1489 1490 1489 1487 1485 1480 1477 1476 1474 1471 1467 1464 1461 1457 1454 1451 1448 1446 1443 1440 1438 1436 1433 1431 1430 1428 1426 1424 1423 1422 1420 1419
1486 1480 1496 1502 1492 1493 1494 1491 1489 1487 1490 1491 1491 1489 1488 1485 1480 1477 1475 1472 1468 1465 1461 1458 1454 1450 1447 1444 1441 1438 1435 1432 1430 1428 1426 1424 1422 1420 1419 1418 1416 1415 1414 1413
1491 1492 1494 1496 1495 1497 1498 1495 1493 1494 1494 1493 1490 1487 1483 1481 1479 1476 1472 1467 1463 1459 1455 1450 1447 1443 1439 1436 1433 1430 1427 1425 1422 1420 1418 1416 1414 1413 1412 1410 1409 1408 1407 1406
1493 1501 1503 1503 1498 1497 1497 1493 1496 1496 1494 1492 1489 1483 1479 1478 1475 1470 1466 1462 1457 1451 1447 1442 1438 1435 1431 1428 1424 1421 1419 1416 1414 1411 1409 1407 1405 1404 1404 1403 1402 1401 1400 1400
1498 1501 1494 1501 1499 1499 1503 1502 1498 1497 1494 1492 1488 1485 1478 1473 1469 1464 1459 1454 1449 1443 1439 1434 1430 1426 1422 1418 1415 1412 1409 1406 1404 1402 1400 1398 1396 1396 1395 1395 1394 1394 1394 1393
1503 1505 1507 1502 1502 1505 1507 1502 1499 1496 1493 1489 1485 1479 1474 1468 1463 1457 1451 1446 1441 1435 1430 1426 1422 1417 1412 1408 1405 1402 1399 1396 1393 1391 1390 1389 1387 1387 1387 1387 1387 1387 1387 1387
1508 1509 1504 1503 1505 1505 1503 1501 1498 1494 1490 1486 1480 1474 1468 1462 1456 1450 1444 1439 1434 1428 1422 1417 1413 1408 1403 1398 1395 1391 1387 1383 1381 1380 1379 1378 1377 1377 1378 1378 1379 1380 1381 1381
1505 1502 1503 1504 1504 1503 1502 1500 1496 1492 1487 1482 1475 1469 1462 1456 1449 1443 1438 1432 1426 1420 1414 1408 1404 1398 1393 1387 1382 1378 1374 1371 1369 1368 1367 1367 1367 1368 1369 1370 1372 1373 1375 1376
1505 1504 1505 1504 1505 1503 1500 1496 1493 1488 1483 1478 1471 1463 1457 1450 1444 1438 1432 1426 1420 1414 1406 1399 1393 1386 1380 1375 1370 1366 1363 1360 1358 1358 1357 1358 1358 1359 1360 1362 1365 1367 1369 1371
1510 1509 1508 1506 1504 1501 1497 1493 1488 1483 1478 1473 1467 1459 1452 1446 1440 1434 1427 1420 1413 1406 1398 1390 1382 1375 1369 1364 1360 1356 1352 1350 1349 1348 1348 1349 1350 1351 1353 1356 1358 1361 1364 1367
1510 1509 1507 1505 1502 1499 1495 1490 1485 1480 1474 1468 1462 1456 1449 1443 1436 1430 1422 1414 1406 1398 1389 1381 1373 1365 1360 1355 1350 1346 1343 1341 1340 1339 1340 1341 1343 1345 1347 1350 1353 1356 1359 1362
1509 1507 1505 1502 1499 1496 1492 1487 1482 1477 1471 1465 1459 1452 1446 1440 1432 1425 1417 1408 1399 1390 1381 1373 1365 1358 1352 1347 1343 1339 1336 1334 1333 1333 1333 1335 1337 1340 1342 1345 1348 1351 1354 1357
1507 1505 1503 1500 1497 1493 1489 1484 1478 1472 1467 1461 1456 1450 1443 1436 1428 1420 1411 1402 1393 1384 1375 1368 1360 1353 1347 1342 1338 1334 1331 1329 1328 1328 1329 1331 1333 1336 1339 1341 1344 1348 1350 1354
1504 1503 1500 1498 1494 1490 1486 1481 1475 1470 1464 1458 1453 1447 1440 1433 1424 1416 1407 1397 1388 1379 1371 1364 1357 1350 1345 1340 1335 1332 1329 1328 1327 1327 1327 1329 1331 1333 1336 1339 1342 1345 1348 1351
1502 1500 1498 1495 1492 1488 1484 1479 1474 1468 1462 1456 1450 1444 1437 1429 1420 1411 1402 1394 1385 1377 1369 1362 1355 1349 1344 1340 1336 1332 1330 1328 1328 1328 1329 1330 1331 1333 1336 1338 1341 1344 1347 1349
1500 1499 1496 1494 1490 1486 1481 1477 1472 1466 1461 1455 1448 1441 1434 1426 1417 1408 1399 1390 1382 1374 1368 1361 1355 1349 1344 1341 1337 1334 1332 1331 1330 1330 1330 1331 1332 1334 1336 1338 1340 1343 1346 1350
1498 1496 1494 1491 1488 1484 1479 1475 1470 1465 1459 1453 1446 1439 1432 1424 1416 1407 1397 1389 1381 1373 1366 1360 1355 1350 1346 1342 1339 1337 1335 1333 1332 1331 1331 1332 1333 1334 1336 1337 1340 1343 1347 1351
1495 1493 1491 1488 1485 1481 1477 1473 1468 1463 1457 1451 1445 1437 1430 1422 1414 1405 1396 1388 1382 1375 1367 1361 1355 1351 1347 1343 1340 1338 1336 1335 1334 1333 1333 1333 1333 1334 1336 1338 1341 1344 1348 1353
1493 1491 1488 1486 1482 1479 1475 1471 1466 1461 1456 1450 1443 1436 1429 1421 1413 1404 1396 1388 1381 1374 1367 1361 1356 1352 1348 1344 1340 1339 1337 1335 1334 1334 1334 1334 1334 1335 1337 1340 1343 1347 1352 1357
1490 1488 1486 1483 1480 1476 1473 1469 1465 1460 1454 1449 1442 1436 1428 1420 1412 1404 1397 1390 1382 1375 1368 1362 1357 1352 1348 1344 1341 1339 1338 1336 1335 1335 1335 1335 1336 1338 1340 1344 1347 1352 1356 1361
1488 1486 1484 1481 1478 1474 1471 1467 1463 1458 1453 1448 1442 1435 1428 1421 1413 1405 1397 1391 1383 1376 1370 1364 1359 1353 1349 1345 1343 1341 1339 1338 1337 1337 1337 1338 1339 1341 1344 1348 1352 1356 1360 1365
1485 1483 1481 1479 1476 1473 1469 1465 1462 1457 1453 1447 1442 1436 1429 1421 1413 1407 1400 1393 1386 1379 1373 1367 1361 1356 1352 1349 1346 1344 1342 1341 1340 1340 1340 1342 1343 1346 1349 1352 1356 1360 1364 1369
1482 1481 1479 1476 1474 1471 1468 1464 1460 1456 1452 1447 1442 1436 1429 1423 1416 1408 1401 1395 1388 1382 1376 1371 1366 1361 1356 1353 1350 1348 1347 1346 1345 1344 1345 1346 1348 1350 1353 1356 1360 1364 1368 1372
1479 1478 1476 1474 1472 1470 1467 1463 1460 1456 1452 1447 1441 1436 1430 1423 1417 1410 1404 1397 1391 1385 1380 1375 1370 1366 1362 1359 1356 1354 1352 1351 1350 1350 1350 1352 1354 1356 1358 1361 1365 1368 1371 1375
1475 1474 1473 1472 1470 1468 1466 1463 1460 1456 1452 1447 1442 1437 1431 1425 1418 1412 1406 1400 1394 1389 1384 1380 1376 1372 1368 1365 1362 1360 1359 1357 1357 1356 1357 1358 1359 1361 1363 1366 1369 1372 1375 1378